Location: Hamilton
(37.7830°S, 175.2830°E)
Time: 20:22:51
(UTC+13:00)

BREEZE-M DEB (TANK) - Pass Details

Date: 24 January 2019
Orbit: 278 x 14014 km, 46.1° (Epoch: 17 February)

Event Time Altitude Azimuth Distance (km) Brightness Sun altitude
Rises 22:19:00 0° 283° (WNW) 4,401 7.4 -17.3°
Reaches altitude 10° 22:23:22 10° 274° (W) 2,308 6.1 -18.0°
Maximum altitude 22:27:19 32° 208° (SSW) 731 3.6 -18.5°
Enters shadow 22:29:15 12° 141° (SE) 1,141 4.0 -18.8°
